星链-32002 (STARLINK-32002)

导读 | 豆包AI

STARLINK-32002是美国SpaceX公司星链(Starlink)星座的卫星,于2024年7月3日发射。星链是低轨宽带互联网星座,该卫星延续星链设计,采用平板构型与单太阳翼,配备氪工质霍尔推进器,支持自主避撞,运行在近500公里左右的近地轨道,面向全球提供高速宽带互联网接入服务,寿命末期会主动离轨坠入大气层烧毁。

基本信息
目录编号:
60200
目录名称:
STARLINK-32002
国际标识:
2024-124T
轨道中心:
EARTH
卫星名称:
星链-32002 (STARLINK-32002)
卫星全名:
星链-32002 (STARLINK-32002)
卫星状态:
在轨 (已飞行620 天)
发射日期:
2024-07-03 UTC
国别 :
美国 (US)
星等 :
--
轨道信息
数据来源 国际轨道数据
星历时间: 2026-03-15T05:44:52+0800
18小时前
查看轨道信息
半长轴: 6853.34km
偏心率: 0.0001243
轨道倾角: 53.160°
近地点辐角 89.206°
升交点赤经 298.317°
平近点角 270.909°
近地点: 474.351km
远地点: 476.055km
周期: 94.105分钟
每日圈数: 15.302042
详细信息
卫星平台:
Starlink v2.0 mini
运营商:
太空探索技术公司
运营商所在国:
美国
制造商(研发单位):
太空探索技术公司
制造商所在国:
美国
使用方式:
暂无
卫星简介
星链(Starlink)计划是由太空探索技术公司(SpaceX)提出的一个巨型低轨卫星互联网星座项目,计划在2019年至2024年间在太空搭建由约1.2万颗卫星组成的“星链”网络,其中1584颗将部署在地球上空550千米处的近地轨道,并从2020年开始工作。该卫星仍在工作。
2D轨道图
3D轨道图
轨道高度分析图
轨道倾角分析图
轨道综合分析图
查看轨道综合分析图